| time (UTC) | temp C | wind direction | speed KPH | gust KPH | rain 1hr cm | rain 24hr cm | rain mn cm | humidity % | barometer mb |
| 20260506135351 | 10 | 93 | 1.6 | 3.2 | 0.00 | 0.00 | 0.00 | 94 | 1019.5 |
| 20260506134345 | 10 | 359 | 0.0 | 1.6 | 0.00 | 0.00 | 0.00 | 93 | 1019.4 |
| 20260506133350 | 10 | 339 | 1.6 | 3.2 | 0.00 | 0.00 | 0.00 | 93 | 1019.4 |
| 20260506132343 | 10 | 358 | 0.0 | 1.6 | 0.00 | 0.00 | 0.00 | 94 | 1019.4 |
| 20260506131346 | 10 | 184 | 1.6 | 4.8 | 0.00 | 0.00 | 0.00 | 95 | 1019.3 |
| 20260506130351 | 10 | 86 | 1.6 | 4.8 | 0.00 | 0.00 | 0.00 | 95 | 1019.2 |
| 20260506125405 | 10 | 193 | 0.0 | 3.2 | 0.00 | 0.00 | 0.00 | 96 | 1019.2 |
| 20260506124349 | 10 | 182 | 0.0 | 3.2 | 0.00 | 0.00 | 0.00 | 95 | 1019.1 |
| 20260506123344 | 9 | 90 | 0.0 | 6.4 | 0.00 | 0.00 | 0.00 | 95 | 1019.1 |
| 20260506122349 | 9 | 88 | 0.0 | 4.8 | 0.00 | 0.00 | 0.00 | 95 | 1019.2 |
| 20260506121342 | 9 | 126 | 1.6 | 4.8 | 0.00 | 0.00 | 0.00 | 97 | 1019.2 |
| 20260506120347 | 10 | 149 | 3.2 | 8.0 | 0.00 | 0.00 | 0.00 | 97 | 1019.1 |
| 20260506115341 | 10 | 90 | 0.0 | 3.2 | 0.00 | 0.00 | 0.00 | 96 | 1019.1 |
| 20260506114347 | 10 | 50 | 0.0 | 3.2 | 0.00 | 0.00 | 0.00 | 95 | 1019.0 |
| 20260506113351 | 10 | 46 | 1.6 | 3.2 | 0.00 | 0.00 | 0.00 | 96 | 1018.8 |
| 20260506112345 | 10 | 0.0 | 3.2 | 0.00 | 0.00 | 0.00 | 96 | 1018.8 | |
| 20260506111409 | 10 | 0.0 | 6.4 | 0.00 | 0.00 | 0.00 | 97 | 1018.7 | |
| 20260506110344 | 10 | 178 | 1.6 | 3.2 | 0.00 | 0.00 | 0.00 | 98 | 1018.6 |
| 20260506105348 | 10 | 278 | 0.0 | 1.6 | 0.00 | 0.00 | 0.00 | 98 | 1018.5 |
| 20260506104342 | 10 | 5 | 0.0 | 3.2 | 0.00 | 0.00 | 0.00 | 98 | 1018.4 |
| 20260506103346 | 10 | 0.0 | 0.0 | 0.00 | 0.00 | 0.00 | 97 | 1018.2 | |
| 20260506102350 | 10 | 0.0 | 1.6 | 0.00 | 0.00 | 0.00 | 97 | 1018.1 | |
| 20260506101344 | 10 | 343 | 0.0 | 3.2 | 0.00 | 0.00 | 0.00 | 99 | 1018.0 |
| 20260506100349 | 10 | 27 | 0.0 | 1.6 | 0.00 | 0.00 | 0.00 | 99 | 1017.9 |
| 20260506095343 | 10 | 90 | 0.0 | 1.6 | 0.00 | 0.00 | 0.00 | 99 | 1018.0 |
| 20260506094347 | 10 | 113 | 1.6 | 1.6 | 0.00 | 0.00 | 0.00 | 99 | 1017.9 |
| 20260506093411 | 9 | 0.0 | 1.6 | 0.00 | 0.00 | 0.00 | 100 | 1018.0 | |
| 20260506092345 | 9 | 0.0 | 0.0 | 0.00 | 0.00 | 0.00 | 99 | 1018.0 | |
| 20260506091349 | 9 | 59 | 1.6 | 3.2 | 0.00 | 0.00 | 0.00 | 100 | 1018.0 |
| 20260506090343 | 9 | 50 | 0.0 | 3.2 | 0.00 | 0.00 | 0.00 | 100 | 1018.0 |
| 20260506085347 | 9 | 180 | 0.0 | 3.2 | 0.00 | 0.00 | 0.00 | 100 | 1018.0 |
| 20260506084341 | 9 | 240 | 0.0 | 1.6 | 0.00 | 0.00 | 0.00 | 100 | 1017.9 |
| 20260506083346 | 8 | 90 | 0.0 | 4.8 | 0.00 | 0.00 | 0.00 | 100 | 1017.9 |
| 20260506082351 | 8 | 139 | 0.0 | 6.4 | 0.00 | 0.00 | 0.00 | 100 | 1017.8 |
| 20260506081405 | 8 | 213 | 1.6 | 6.4 | 0.00 | 0.00 | 0.00 | 100 | 1017.8 |
| 20260506080349 | 8 | 90 | 1.6 | 3.2 | 0.00 | 0.00 | 0.00 | 100 | 1017.7 |
| 20260506073342 | 7 | 0.0 | 0.0 | 0.00 | 0.00 | 0.00 | 97 | 1017.4 | |
| 20260506072347 | 7 | 0.0 | 0.0 | 0.00 | 0.00 | 0.00 | 97 | 1017.3 | |
| 20260506071351 | 7 | 0.0 | 0.0 | 0.00 | 0.00 | 0.00 | 96 | 1017.2 | |
| 20260506070345 | 7 | 0.0 | 0.0 | 0.00 | 0.00 | 0.00 | 96 | 1017.2 | |
| 20260506062351 | 7 | 0.0 | 0.0 | 0.00 | 0.00 | 0.00 | 92 | 1016.9 | |
| 20260506061345 | 7 | 0.0 | 0.0 | 0.00 | 0.00 | 0.00 | 93 | 1016.9 | |
| 20260506060349 | 7 | 135 | 0.0 | 1.6 | 0.00 | 0.00 | 0.00 | 93 | 1016.9 |
| 20260506051350 | 8 | 145 | 1.6 | 3.2 | 0.00 | 0.00 | 0.00 | 91 | 1016.9 |
| 20260506050344 | 8 | 126 | 1.6 | 3.2 | 0.00 | 0.00 | 0.00 | 90 | 1016.9 |
| 20260506044423 | 9 | 165 | 1.6 | 3.2 | 0.00 | 0.00 | 0.00 | 89 | 1016.7 |
| 20260506043348 | 9 | 284 | 0.0 | 3.2 | 0.00 | 0.00 | 0.00 | 91 | 1016.7 |
| 20260506042341 | 9 | 179 | 1.6 | 3.2 | 0.00 | 0.00 | 0.00 | 89 | 1016.5 |
| 20260506041426 | 10 | 5 | 0.0 | 1.6 | 0.00 | 0.00 | 0.00 | 88 | 1016.3 |
| 20260506040411 | 10 | 233 | 1.6 | 4.8 | 0.00 | 0.00 | 0.00 | 89 | 1016.1 |
| 20260506035344 | 10 | 0.0 | 0.0 | 0.00 | 0.00 | 0.00 | 84 | 1015.9 | |
| 20260506034349 | 10 | 0.0 | 3.2 | 0.00 | 0.00 | 0.00 | 84 | 1015.8 | |
| 20260506033343 | 11 | 45 | 0.0 | 4.8 | 0.00 | 0.00 | 0.00 | 84 | 1015.7 |
| 20260506032348 | 11 | 347 | 0.0 | 3.2 | 0.00 | 0.00 | 0.00 | 83 | 1015.7 |
| 20260506031341 | 11 | 302 | 0.0 | 8.0 | 0.00 | 0.00 | 0.00 | 84 | 1015.7 |
| 20260506030346 | 11 | 24 | 1.6 | 3.2 | 0.00 | 0.00 | 0.00 | 82 | 1015.7 |
| 20260506025351 | 11 | 39 | 1.6 | 4.8 | 0.00 | 0.00 | 0.00 | 82 | 1015.8 |
| 20260506024345 | 11 | 20 | 1.6 | 8.0 | 0.00 | 0.00 | 0.00 | 81 | 1015.8 |
| 20260506023349 | 12 | 24 | 3.2 | 9.7 | 0.00 | 0.00 | 0.00 | 81 | 1015.8 |
| 20260506022343 | 12 | 57 | 1.6 | 9.7 | 0.00 | 0.00 | 0.00 | 79 | 1015.7 |
| 20260506021348 | 12 | 327 | 1.6 | 3.2 | 0.00 | 0.00 | 0.00 | 78 | 1015.7 |
| 20260506020342 | 12 | 303 | 3.2 | 6.4 | 0.00 | 0.00 | 0.00 | 77 | 1015.7 |
| 20260506015347 | 12 | 25 | 1.6 | 11.3 | 0.00 | 0.00 | 0.00 | 78 | 1015.7 |
| 20260506014351 | 13 | 112 | 3.2 | 9.7 | 0.00 | 0.00 | 0.00 | 77 | 1015.6 |
| 20260506013345 | 13 | 60 | 3.2 | 9.7 | 0.00 | 0.00 | 0.00 | 75 | 1015.7 |
| 20260506012351 | 13 | 345 | 3.2 | 11.3 | 0.00 | 0.00 | 0.00 | 74 | 1015.8 |
| 20260506011343 | 13 | 357 | 4.8 | 8.0 | 0.00 | 0.00 | 0.00 | 74 | 1015.7 |
| 20260506010347 | 13 | 289 | 3.2 | 9.7 | 0.00 | 0.00 | 0.00 | 74 | 1015.7 |
| 20260506005341 | 13 | 162 | 3.2 | 9.7 | 0.00 | 0.00 | 0.00 | 74 | 1015.8 |
| 20260506004346 | 13 | 100 | 3.2 | 9.7 | 0.00 | 0.00 | 0.00 | 72 | 1015.8 |
| 20260506003351 | 14 | 74 | 1.6 | 8.0 | 0.00 | 0.00 | 0.00 | 71 | 1015.8 |
| 20260506002345 | 14 | 343 | 4.8 | 12.9 | 0.00 | 0.00 | 0.00 | 70 | 1015.9 |
| 20260506001350 | 15 | 322 | 1.6 | 6.4 | 0.00 | 0.00 | 0.00 | 69 | 1015.9 |
| 20260506000344 | 15 | 242 | 3.2 | 14.5 | 0.00 | 0.00 | 0.00 | 67 | 1016.0 |
| 20260505235408 | 15 | 325 | 3.2 | 11.3 | 0.00 | 0.00 | 0.00 | 66 | 1016.1 |
| 20260505234342 | 16 | 69 | 3.2 | 11.3 | 0.00 | 0.00 | 0.00 | 66 | 1016.3 |
| 20260505233347 | 16 | 272 | 1.6 | 6.4 | 0.00 | 0.00 | 0.00 | 66 | 1016.3 |
| 20260505232352 | 16 | 342 | 3.2 | 9.7 | 0.00 | 0.00 | 0.00 | 66 | 1016.4 |
| 20260505231346 | 16 | 235 | 4.8 | 11.3 | 0.00 | 0.00 | 0.00 | 68 | 1016.4 |
| 20260505230411 | 16 | 1 | 3.2 | 9.7 | 0.00 | 0.00 | 0.00 | 66 | 1016.5 |
| 20260505225344 | 16 | 334 | 3.2 | 9.7 | 0.00 | 0.00 | 0.00 | 66 | 1016.6 |
| 20260505224348 | 17 | 228 | 3.2 | 6.4 | 0.00 | 0.00 | 0.00 | 67 | 1016.6 |
| 20260505223343 | 17 | 344 | 1.6 | 8.0 | 0.00 | 0.00 | 0.00 | 67 | 1016.6 |
| 20260505222347 | 17 | 311 | 1.6 | 6.4 | 0.00 | 0.00 | 0.00 | 66 | 1016.7 |
| 20260505221352 | 17 | 59 | 1.6 | 8.0 | 0.00 | 0.00 | 0.00 | 64 | 1016.7 |
| 20260505220345 | 17 | 353 | 1.6 | 6.4 | 0.00 | 0.00 | 0.00 | 66 | 1016.8 |
| 20260505215350 | 17 | 310 | 3.2 | 6.4 | 0.00 | 0.00 | 0.00 | 62 | 1016.8 |
| 20260505214343 | 18 | 14 | 3.2 | 6.4 | 0.00 | 0.00 | 0.00 | 62 | 1016.9 |
| 20260505213348 | 18 | 5 | 6.4 | 9.7 | 0.00 | 0.00 | 0.00 | 59 | 1017.0 |
| 20260505212341 | 19 | 64 | 3.2 | 8.0 | 0.00 | 0.00 | 0.00 | 58 | 1017.1 |
| 20260505211346 | 19 | 240 | 3.2 | 6.4 | 0.00 | 0.00 | 0.00 | 62 | 1017.0 |
| 20260505210351 | 18 | 18 | 3.2 | 6.4 | 0.00 | 0.00 | 0.00 | 61 | 1016.9 |
| 20260505205345 | 18 | 120 | 1.6 | 4.8 | 0.00 | 0.00 | 0.00 | 65 | 1017.0 |
| 20260505204349 | 18 | 100 | 3.2 | 6.4 | 0.00 | 0.00 | 0.00 | 68 | 1017.0 |
| 20260505203423 | 17 | 213 | 3.2 | 8.0 | 0.00 | 0.00 | 0.00 | 67 | 1017.1 |
| 20260505202347 | 17 | 212 | 1.6 | 4.8 | 0.00 | 0.00 | 0.00 | 68 | 1017.2 |
| 20260505201401 | 17 | 221 | 1.6 | 6.4 | 0.00 | 0.00 | 0.00 | 67 | 1017.2 |
| 20260505200346 | 17 | 313 | 1.6 | 4.8 | 0.00 | 0.00 | 0.00 | 69 | 1017.2 |
| 20260505195411 | 16 | 47 | 1.6 | 6.4 | 0.00 | 0.00 | 0.00 | 70 | 1017.1 |
| 20260505194345 | 16 | 295 | 0.0 | 1.6 | 0.00 | 0.00 | 0.00 | 73 | 1017.1 |
| 20260505193410 | 16 | 340 | 3.2 | 4.8 | 0.00 | 0.00 | 0.00 | 73 | 1017.1 |
| 20260505192344 | 16 | 265 | 1.6 | 3.2 | 0.00 | 0.00 | 0.00 | 76 | 1017.1 |
| 20260505191349 | 15 | 7 | 0.0 | 4.8 | 0.00 | 0.00 | 0.00 | 76 | 1017.1 |
| 20260505190343 | 15 | 186 | 1.6 | 3.2 | 0.00 | 0.00 | 0.00 | 79 | 1017.0 |
| 20260505185408 | 14 | 353 | 0.0 | 3.2 | 0.00 | 0.00 | 0.00 | 79 | 1017.0 |
| 20260505184342 | 14 | 5 | 0.0 | 4.8 | 0.00 | 0.00 | 0.00 | 79 | 1017.0 |
| 20260505183346 | 14 | 0.0 | 1.6 | 0.00 | 0.00 | 0.00 | 81 | 1017.1 | |
| 20260505182351 | 14 | 13 | 0.0 | 3.2 | 0.00 | 0.00 | 0.00 | 82 | 1017.1 |
| 20260505181344 | 13 | 0.0 | 1.6 | 0.00 | 0.00 | 0.00 | 83 | 1017.0 | |
| 20260505180348 | 13 | 341 | 1.6 | 4.8 | 0.00 | 0.00 | 0.00 | 83 | 1016.9 |
| 20260505175342 | 13 | 47 | 1.6 | 3.2 | 0.00 | 0.00 | 0.00 | 85 | 1016.8 |
| 20260505174347 | 13 | 38 | 1.6 | 1.6 | 0.00 | 0.00 | 0.00 | 86 | 1016.7 |
| 20260505173351 | 13 | 0.0 | 1.6 | 0.00 | 0.00 | 0.00 | 88 | 1016.6 | |
| 20260505172346 | 13 | 0.0 | 1.6 | 0.00 | 0.00 | 0.00 | 89 | 1016.6 | |
| 20260505171349 | 12 | 33 | 0.0 | 4.8 | 0.00 | 0.00 | 0.00 | 90 | 1016.6 |
| 20260505170343 | 12 | 303 | 0.0 | 3.2 | 0.00 | 0.00 | 0.00 | 91 | 1016.6 |
| 20260505165348 | 12 | 321 | 0.0 | 3.2 | 0.00 | 0.00 | 0.00 | 92 | 1016.6 |
| 20260505164341 | 12 | 142 | 0.0 | 4.8 | 0.00 | 0.00 | 0.00 | 92 | 1016.6 |
| 20260505163346 | 12 | 341 | 0.0 | 4.8 | 0.00 | 0.00 | 0.00 | 94 | 1016.6 |
| 20260505162351 | 12 | 316 | 0.0 | 3.2 | 0.00 | 0.00 | 0.00 | 94 | 1016.6 |
| 20260505161344 | 12 | 268 | 0.0 | 1.6 | 0.00 | 0.00 | 0.00 | 95 | 1016.5 |
| 20260505160349 | 12 | 331 | 1.6 | 3.2 | 0.00 | 0.00 | 0.00 | 95 | 1016.5 |
| 20260505153352 | 11 | 330 | 0.0 | 1.6 | 0.00 | 0.00 | 0.00 | 98 | 1016.3 |
| 20260505152346 | 11 | 0.0 | 1.6 | 0.00 | 0.00 | 0.00 | 99 | 1016.2 | |
| 20260505151351 | 11 | 333 | 0.0 | 1.6 | 0.00 | 0.00 | 0.00 | 99 | 1016.1 |
| 20260505150344 | 11 | 44 | 0.0 | 1.6 | 0.00 | 0.00 | 0.00 | 99 | 1016.0 |
| 20260505140349 | 10 | 135 | 0.0 | 1.6 | 0.00 | 0.00 | 0.00 | 100 | 1015.4 |